Regional Weather Roundup
Issued by NWS

Home | Current Version | Previous Version | Graphics & Text | Print | Product List | Glossary On
Versions: 1 2 3 4 5 6 7 8 9 10 11 12 13 14 15 16 17 18 19 20 21 22 23 24 25 26 27 28 29 30 31 32 33 34 35 36 37 38 39 40 41 42 43 44 45 46 47 48 49 50
366
ASUS44 KLIX 020801
RWRLA
LOUISIANA WEATHER ROUNDUP
NATIONAL WEATHER SERVICE NEW ORLEANS LA
300 AM CDT THU OCT 02 2014

NOTE: "FAIR" INDICATES FEW OR NO CLOUDS BELOW 12,000 FEET WITH NO
      SIGNIFICANT WEATHER AND/OR OBSTRUCTIONS TO VISIBILITY.
      SKY/WX - SKY CONDITION AND SIGNIFICANT WEATHER.
      TMP - AIR TEMPERATURE.    DP   - DEWPOINT TEMPERATURE.
      RH  - RELATIVE HUMIDITY.  PRES - PRESSURE.
      HX  - HEAT INDEX.         WCI  - WIND CHILL INDEX.

*  THESE STATIONS ARE NOT NWS OR FAA STATIONS AND ARE NOT UNDER
   NWS QUALITY CONTROL.

LAZ040-048-061>063-065-066-069-020900-
SOUTHEAST LOUISIANA

CITY           SKY/WX    TMP DP  RH WIND       PRES   REMARKS
N.O. AUDUBON     N/A     79  78  97 MISG        N/A
N.O. INTL ARPT PTCLDY    78  75  90 SE5       29.93S
N.O. LAKEFRONT CLEAR     78  76  93 SE6       29.94S
N.O. DOWNTOWN* FAIR      79  73  83 E3        29.94S
SLIDELL        CLOUDY    78  75  90 SE5       29.94S
BATON ROUGE    PTCLDY    76  74  93 SE6       29.92S
BOOTHVILLE     CLEAR     77  77 100 SE3       29.95S
BELLE CHASSE   CLEAR     78  74  87 SE3       29.93S
BOGALUSA*      CLOUDY    77  73  86 CALM      29.96S
GALLIANO*      NOT AVBL
NEW ROADS*     PTSUNNY   76  75  97 SE3       29.92S
GONZALES*      FAIR      75  75 100 CALM      29.92S
HAMMOND*       NOT AVBL
HOUMA*         CLEAR    N/A N/A N/A CALM      29.92S
PORT FOURCHON* SUNNY     81  75  83 SE8       29.96S

$$

LAZ041-044-053-054-020900-
SOUTHWEST LOUISIANA

CITY           SKY/WX    TMP DP  RH WIND       PRES   REMARKS
LAKE CHARLES   PTCLDY    78  77  96 CALM      29.87S
LAFAYETTE      CLOUDY    78  78 100 CALM      29.90S
PATTERSON      CLEAR     75  75 100 SE3       29.94S
SALT POINT       N/A     81  79  94 SE5       29.90S
NEW IBERIA     PTCLDY    77  76  96 SE6       29.91S
CHENAULT AIRPK PTCLDY    76  76 100 CALM      29.88S FOG

$$

LAZ027-028-020900-
CENTRAL LOUISIANA

CITY           SKY/WX    TMP DP  RH WIND       PRES   REMARKS
FORT POLK      CLOUDY    77  76  95 S8        29.88S
ALEXANDRIA INT CLOUDY    77  75  93 SE7       29.87F
ALEXANDRIA     CLOUDY    76  74  93 S6        29.90S

$$

LAZ001-002-020900-
NORTHWEST LOUISIANA

CITY           SKY/WX    TMP DP  RH WIND       PRES   REMARKS
SHREVEPORT     PTCLDY    76  74  93 S8        29.84S
BARKSDALE AFB  PTCLDY    75  74  98 S9        29.85S
DTN SHREVEPORT PTCLDY    75  72  90 SE5       29.85S

$$

LAZ014-016-020900-
NORTHEAST LOUISIANA

CITY           SKY/WX    TMP DP  RH WIND       PRES   REMARKS
MONROE         CLOUDY    77  73  87 S7        29.89F
TALLULAH       MOCLDY    76  72  87 S6        29.91S

$$




USA.gov is the U.S. government's official web portal to all federal, state and local government web resources and services.